Dr. Bill's Marine Weather

Coastal Marine Forecast

       Alabama   Florida   Louisiana   Mississippi

Printer Friendly AL  FL  LA  MS

Data Buoys:   Western Gulf of Mexico    Eastern Gulf of Mexico
**********************************************************************
  Alabama
1200 AM CDT SUN OCT 26 2014

ALZ051>064-260600-
SOUTHWEST ALABAMA
  
CITY           SKY/WX    TMP DP  RH WIND       PRES   REMARKS
MOBILE         CLEAR     55  54  96 CALM      30.07F                  
BROOKLEY FIELD CLEAR     58  57  97 CALM      30.07F                  
EVERGREEN      CLEAR     55  52  89 CALM      30.06F                  
**********************************************************************
  Florida
100 AM EDT SUN OCT 26 2014

FLZ001>010-012>015-112-114-115-260600-
PANHANDLE FLORIDA
  
CITY           SKY/WX    TMP DP  RH WIND       PRES   REMARKS
PENSACOLA      CLEAR     59  52  77 N5        30.04F                  
PENSACOLA NAS  CLEAR     54  52  93 CALM      30.04F                  
MILTON NAS     CLEAR     54  50  86 N3        30.05F                  
CRESTVIEW      CLEAR     50  49  96 CALM      30.06F                  
DUKE FIELD     FAIR      51  48  89 CALM      30.04F                  
VALPARAISO     CLEAR     60  50  71 N6        30.04F                  
MARY ESTHER    CLEAR     55  49  79 N6        30.03F                  
TRI COUNTY     FAIR      52  52 100 CALM      30.04F                  
PANAMA CITY    FAIR      55  50  83 CALM      30.02F                  
TYNDALL AFB    CLEAR     60  53  78 N5        30.03F                  
APALACHICOLA   CLEAR     58  50  75 N3        30.02F                  

STATION/POSITION SKY/WX   TEMP    WIND        PRES    WAVE   SWELL
                          AIR SEA DIR/SP/G            HT/PER HT/PER
                          (F)     (DEG/KT/KT) (MB)    (FT/S) (FT/S)
30.1N   87.6W              75 77   20/  8/  8 1017.3F   1
29.2N   88.2W              74 78  340/ 12/ 14 1018.4F   2/ 4
28.8N   86.0W              76 79   30/ 14/ 16 1016.7F   2/ 4
PANAMA CITY BEAC           64 75  350/  5/  6 1016.7F
CAPE SAN BLAS    NOT AVBL
TOWER C                    73     360/ 11/ 13 1016.2F
28.5N   84.5W              75 80   10/ 12/ 16 1016.1F   2/ 3

**********************************************************************
  Louisiana
1200 AM CDT SUN OCT 26 2014

LAZ040-048-061>063-065-066-069-260600-
SOUTHEAST LOUISIANA
  
CITY           SKY/WX    TMP DP  RH WIND       PRES   REMARKS
N.O. AUDUBON     N/A     65  61  86 MISG        N/A                   
N.O. INTL ARPT CLEAR     64  58  80 CALM      30.08F                  
N.O. LAKEFRONT CLEAR     72  64  76 NW8       30.08F                  
N.O. DOWNTOWN* FAIR      72  57  60 CALM      30.08F                  
SLIDELL        CLEAR     58  55  90 CALM      30.07F                  
BATON ROUGE    CLEAR     58  55  90 CALM      30.09F                  
BOOTHVILLE     CLEAR     65  61  87 CALM      30.08F                  
BELLE CHASSE   CLEAR     58  54  86 CALM      30.07F                  
BOGALUSA*      FAIR      59  56  89 CALM      30.10S                  
NEW ROADS*     FAIR      56  56  97 CALM      30.09F FOG              
GONZALES*      FAIR      57  57 100 CALM      30.08F                  
HAMMOND*       CLEAR     59  55  88 CALM      30.09F                  
HOUMA*         CLEAR     57  56  96 CALM      30.08F                  
PORT FOURCHON* CLEAR     70  64  83 W5        30.11F                  

**********************************************************************
  Mississippi
1200 AM CDT SUN OCT 26 2014

MSZ080>082-260600-
COASTAL MISSISSIPPI
  
CITY           SKY/WX    TMP DP  RH WIND       PRES   REMARKS
BILOXI         CLEAR     65  61  84 NW2       30.06F                  
PASCAGOULA     CLEAR     55  54  96 CALM      30.07F FOG              
GULFPORT       CLEAR     60  58  92 CALM      30.06F                  
About Us | Coastal Marine Forecast | Offshore Marine Forecast | Marine Weather Discussion
Gulf Coast Tides | Exxon Mobil Platform 112B | Hourly Weather Observations | Weather Radar
Severe Weather Potential | Sea Surface Temperatures | Solar/Lunar Data | Hurricane Advisories | Home
     
USA Logo Dr. Bill's Marine Weather
Last date changed: February 4, 2005 12:04 PM
www.gulfmarineweather.com/hourlyweatherobservations.shtml
Contact Us